#timestamp,LO_Frequency,Hit,StdDev 
1615903215.3,286046999.0,P
1615903235.1,286046999.1,P
1615903255.9,286046998.9,P
1615903275.7,286047001.0,Y
1615903295.6,286046999.7,P
1615903315.4,286047000.4,N
1615903335.2,286047000.1,N
1615903355.1,286047002.5,Y
1615903356.0,286047002.5,P
1615903375.8,286047001.8,N
1615903395.6,286047002.0,N
1615903415.5,286047004.0,Y
1615903435.3,286047002.5,P
1615903455.2,286047002.4,P
1615903475.9,286047002.3,P
1615903495.7,286047000.2,N
1615903515.6,286046999.9,N
1615903535.4,286047001.4,N
1615903555.2,286047002.0,N
1615903575.1,286047002.1,N
1615903576.0,286047002.1,N
1615903595.8,286047001.8,N
1615903615.7,286047001.7,N
1615903635.5,286047004.1,Y
1615903655.3,286047001.5,P
1615903675.2,286047001.3,P
1615903695.0,286047002.6,P
1615903695.9,286047002.6,Y
1615903715.7,286047002.6,P
1615903735.6,286047002.0,P
1615903755.4,286047002.1,P
1615903775.3,286047002.6,Y
1615903795.1,286046998.1,P
1615903796.0,286046998.1,N
1615903815.8,286047000.8,N
1615903835.7,286047000.4,N
1615903855.5,286047000.3,N
1615903875.3,286047000.3,N
1615903895.2,286046999.7,N
1615903915.0,286047000.0,N
1615903915.9,286047000.0,N
1615903935.8,286047001.0,N
1615903955.6,286046998.5,N
1615903975.4,286047001.0,N
1615903995.3,286047000.6,N
1615904015.1,286046998.3,N
1615904035.8,286047000.5,N
1615904055.7,286047001.0,N
1615904075.5,286046999.7,N
1615904095.4,286046999.8,N
1615904115.2,286046999.8,N
1615904135.0,286047000.4,N
1615904135.9,286047000.4,N
1615904155.8,286047000.6,N
1615904175.6,286046998.3,N
1615904195.4,286046999.1,N
1615904215.3,286046999.2,N
1615904235.1,286046998.5,N
1615904255.9,286046999.8,N
1615904275.7,286047002.8,N
1615904295.5,286047000.5,N
1615904315.4,286047000.9,N
1615904335.2,286047000.3,N
1615904355.0,286046999.9,N
1615904355.9,286046999.9,N
1615904375.8,286047002.4,N
1615904395.6,286047000.0,N
1615904415.5,286046999.9,N
1615904435.3,286047000.3,N
1615904455.1,286047000.8,N
1615904475.9,286047000.0,N
1615904495.7,286047000.5,N
1615904515.5,286046998.5,N
1615904535.4,286047001.0,N
1615904555.2,286047001.1,N
1615904575.0,286047000.5,N
1615904576.0,286047000.5,N
1615904595.8,286047000.1,N
1615904615.6,286047000.7,N
1615904635.5,286047002.7,N
1615904655.3,286047000.0,N
1615904675.1,286047000.8,N
1615904695.9,286047000.7,N
1615904715.7,286047002.0,N
1615904735.6,286047003.9,Y
1615904755.4,286047003.7,P
1615904775.2,286047009.1,P
1615904795.1,286047009.0,N
1615904796.0,286047009.0,N
1615904815.8,286047006.2,N
1615904835.6,286047004.5,N
1615904855.5,286047005.9,N
1615904875.3,286047003.3,N
1615904895.1,286047003.9,N
1615904915.9,286047004.3,N
1615904935.7,286047004.3,N
1615904955.6,286047002.2,N
1615904975.4,286047002.6,N
1615904995.2,286047001.4,N
1615905015.1,286047002.4,N
1615905016.0,286047002.4,N
1615905035.8,286047000.9,N
1615905055.7,286047000.3,N
1615905075.5,286046999.7,N
1615905095.3,286047002.0,N
1615905115.2,286047004.0,N
1615905135.9,286047002.2,N
1615905155.7,286047001.8,N
1615905175.6,286047003.9,N
1615905195.4,286047002.7,N
1615905215.2,286046999.9,N
1615905235.1,286047001.1,N
1615905236.0,286047001.1,N
1615905255.8,286047000.6,N
1615905275.7,286046998.3,N
1615905295.5,286047000.9,N
1615905315.3,286047000.5,N
1615905335.2,286047001.1,N
1615905355.0,286046998.4,N
1615905355.9,286046998.4,N
1615905375.7,286046998.8,N
1615905395.6,286046999.3,N
1615905415.4,286046999.1,N
1615905435.3,286046997.0,N
1615905455.1,286046997.1,N
1615905456.0,286046997.1,N
1615905475.8,286046997.3,N
1615905495.7,286046996.9,N
1615905515.5,286046997.8,N
1615905535.3,286046997.7,N
1615905555.2,286046995.1,N
1615905575.0,286046995.2,N
1615905575.9,286046995.2,N
1615905595.8,286046996.4,N
1615905615.6,286046993.3,N
1615905635.4,286046996.2,N
1615905655.3,286046995.0,N
1615905675.1,286046995.6,N
1615905695.8,286046995.6,N
1615905715.7,286046995.0,N
1615905735.5,286046995.8,N
1615905755.4,286046996.1,N
1615905775.2,286046998.2,N
1615905795.0,286046998.8,N
1615905795.9,286046998.8,N
1615905815.8,286046999.5,N
1615905835.6,286046998.4,N
1615905855.4,286046997.1,N
1615905875.3,286046998.6,N
1615905895.1,286046998.5,N
1615905915.9,286046997.2,N
1615905935.7,286046997.1,N
1615905955.5,286046997.4,N
1615905975.4,286046997.4,N
1615905995.2,286046996.1,N
1615906015.0,286046997.3,N
1615906015.9,286046997.3,N
1615906035.8,286046995.4,Y
1615906055.6,286046998.6,P
1615906075.5,286047000.8,N
1615906095.3,286047000.9,N
1615906115.1,286047000.2,N
1615906135.9,286047002.7,N
1615906155.7,286046999.8,N
1615906175.5,286047000.6,N
1615906195.4,286047001.0,N
1615906215.2,286046998.3,N
1615906235.1,286046998.4,N
1615906236.0,286046998.4,N
1615906255.8,286047000.3,N
1615906275.6,286047000.5,N
1615906295.5,286047000.5,N
1615906315.3,286046998.2,N
1615906335.1,286047000.0,N
1615906355.9,286046999.9,N
1615906375.7,286047000.7,N
1615906395.6,286046998.1,N
1615906415.4,286046998.4,N
1615906435.2,286047001.1,N
1615906455.1,286046998.6,N
1615906456.0,286046998.6,N
1615906475.8,286046998.5,N
1615906495.6,286047000.5,N
1615906515.5,286046998.1,N
1615906535.3,286047001.0,N
1615906555.2,286046998.2,N
1615906575.9,286047001.2,N
1615906595.7,286046998.8,N
1615906615.6,286047001.2,N
1615906635.4,286047001.1,N
1615906655.2,286047000.8,N
1615906675.1,286046998.1,N
1615906676.0,286046998.1,N
1615906695.8,286046998.4,N
1615906715.7,286046998.8,N
1615906735.5,286046999.4,N
1615906755.3,286046999.5,N
1615906775.2,286046997.1,N
1615906795.0,286046996.6,N
1615906795.9,286046996.6,N
